553  
ASUS46 KLOX 181713  
RWRCA  
 
SOUTHERN CALIFORNIA WEATHER ROUNDUP  
NATIONAL WEATHER SERVICE OXNARD CALIFORNIA  
1000 AM PDT SUN AUG 18 2019  
 
NOTE: "FAIR" INDICATES FEW OR NO CLOUDS BELOW 12,000 FEET WITH NO  
SIGNIFICANT WEATHER AND/OR S TO VISIBILITY
.  
 
- STATIONS PRECEEDED BY AN ASTERISK (*) ARE NOT NWS OR FAA  
STATIONS AND ARE NOT SUBJECT TO NWS AND FAA QUALITY CONTROL.
 
 
CAZ041-042-087-181800-  
LA AND ORANGE COUNTY COASTAL AREAS  
 
 
CITY SKY/WX TMP DP RH WIND PRES REMARKS
 
L.A. DOWNTOWN CLOUDY 71 60 68 VRB3 29.93R  
L.A. AIRPORT CLOUDY 71 59 65 SE8 29.94R  
LONG BEACH CLOUDY 70 58 65 S6 29.94R  
 
CITY SKY/WX TMP DP RH WIND PRES REMARKS
 
AVALON N/A 66 N/A N/A MISG N/A  
FULLERTON CLOUDY 69 58 67 S6 29.93R  
HAWTHORNE CLOUDY 69 58 67 VRB5 29.94R  
*LEO CARRILLO N/A 68 60 74 SW3 N/A  
*LOS ALAMITOS CLOUDY 68 53 56 CALM 29.94S  
*REDONDO BEACH N/A 69 60 72 SE3 29.94R  
SANTA ANA CLOUDY 70 58 65 E7 29.94R  
STA MONICA APT CLOUDY 68 61 78 SW5 29.94R  
TORRANCE CLOUDY 68 59 73 CALM 29.94R  
*UCLA N/A 68 59 73 S3 29.91S  
 

 
 
CAZ547-548-048-181800-  
LA COUNTY VALLEYS AND INLAND EMPIRE  
 
 
CITY SKY/WX TMP DP RH WIND PRES REMARKS
 
BURBANK PTSUNNY 68 58 70 S5 29.94R  
VAN NUYS PTSUNNY 70 58 65 SE5 29.94R  
 
CITY SKY/WX TMP DP RH WIND PRES REMARKS
 
CORONA AIRPORT CLOUDY 69 61 75 MISG 29.95R  
*CHATSWORTH N/A 70 59 67 E3 29.95R  
CHINO CLOUDY 68 60 75 MISG 29.96R  
*CLAREMONT N/A 66 60 80 CALM N/A  
MARCH AFB MOSUNNY 70 65 84 N7 29.95R  
*NORTHRIDGE N/A 70 55 60 SE2 N/A  
ONTARIO CLOUDY 66 59 78 SW5 29.95R HAZE  
*PASADENA N/A 70 63 78 E3 N/A  
POMONA CLOUDY 64 59 82 CALM 29.96R  
RIVERSIDE CLOUDY 66 59 78 W6 29.95R HAZE  
SAN BERNARDINO PTSUNNY 68 59 73 W3 29.95 HAZE  
*SAN RAFAEL HI N/A 69 58 69 S3 N/A  
*SAUGUS N/A 68 57 67 W2 N/A  
*WHITEMAN AP MOSUNNY 68 55 64 CALM 29.98R  
*WOODLAND HILL N/A 68 57 68 E2 N/A  
 

 
 
CAZ054-055-181800-  
LA AND SAN BERNARDINO COUNTY MOUNTAINS  
 
 
CITY SKY/WX TMP DP RH WIND PRES REMARKS
 
*ACTON N/A 74 47 38 SW6 N/A  
*BIG BEAR AIRP MOSUNNY 68 23 18 W5 30.18R  
*BIG PINES N/A 70 29 22 CALM N/A  
*CHILAO N/A 76 31 19 S7 N/A  
SANDBERG N/A 73 33 23 S12 30.06R  
*WARM SPRINGS N/A 73 40 29 CALM N/A  
 

 
 
CAZ028-029-059-060-099-181800-  
ANTELOPE VALLEY AND SURROUNDING AREAS  
 
 
CITY SKY/WX TMP DP RH WIND PRES REMARKS
 
LANCASTER SUNNY 87 32 14 SW18G25 29.91S  
PALMDALE SUNNY 87 32 14 SW14G21 29.92S  
 
CITY SKY/WX TMP DP RH WIND PRES REMARKS
 
29 PALMS MOSUNNY 88 21 8 NW5 29.96S  
BARSTOW/DAGGET MOSUNNY 84 36 18 W6 29.90R  
BISHOP SUNNY 81 36 19 VRB3 29.97S  
CHINA LAKE SUNNY 84 37 18 VRB3 29.90R  
EDWARDS AFB SUNNY 85 26 12 SW15 29.89S  
MOJAVE SUNNY 82 37 20 VRB3 29.93R  
NEEDLES SUNNY 98 36 11 NE5 29.83R HX 93  
VICTORVILLE SUNNY N/A N/A N/A SE10 29.95R  
 

 
 
CAZ039-040-181800-  
VENTURA AND SANTA BARBARA COUNTY COAST  
 
 
CITY SKY/WX TMP DP RH WIND PRES REMARKS
 
CAMARILLO MOSUNNY 72 57 59 VRB5 29.93R  
OXNARD AIRPORT PTSUNNY 70 58 65 N5 29.93R  
*POINT MUGU PTSUNNY 71 59 65 VRB3 29.93S  
SBA APT/GOLETA CLOUDY 65 59 81 SW5 29.94R  
*SANTA BARBARA N/A 67 59 76 CALM 30.02R  
*VENTURA N/A 66 59 77 MISG N/A  
 

 
 
CAZ044-045-181800-  
VENTURA COUNTY VALLEYS  
 
 
CITY SKY/WX TMP DP RH WIND PRES REMARKS
 
*SIMI VALLEY N/A 72 60 65 CALM 29.88S  
*THOUSAND OAKS N/A 69 60 72 S2 29.94S  
*WESTLAKE VILL N/A 69 58 67 CALM 29.89S  
*OJAI N/A 67 59 75 W2 29.89S  
*FILLMORE N/A 71 61 70 SE1 29.97S  
 

 
 
CAZ053-181800-  
VENTURA COUNTY MOUNTAINS  
 
 
CITY SKY/WX TMP DP RH WIND PRES REMARKS
 
*LOCKWOOD VLY N/A 79 34 19 SW5G10 N/A  
*ROSE VALLEY N/A 77 43 29 N3 N/A  
 

 
 
CAZ034-035-036-181800-  
CENTRAL COAST AND SANTA YNEZ VALLEY  
 
 
CITY SKY/WX TMP DP RH WIND PRES REMARKS
 
SAN LUIS OBISP CLOUDY 62 55 77 SW7 29.95R  
SANTA MARIA CLOUDY 64 55 72 VRB3 29.95S  
 
CITY SKY/WX TMP DP RH WIND PRES REMARKS
 
*CAL POLY SLO N/A 61 61 100 SW3 N/A  
*LOMPOC CLOUDY 62 58 86 W3 29.95R  
*PISMO BEACH N/A 62 54 74 SW2 29.95R  
*SANTA YNEZ CLOUDY 59 54 82 CALM 29.95S  
 

 
 
CAZ037-038-051-181800-  
SAN LUIS OBISPO COUNTY INTERIOR AND CUYAMA VALLEY  
 
 
CITY SKY/WX TMP DP RH WIND PRES REMARKS
 
*CUYAMA N/A 68 54 60 W2 29.79S  
PASO ROBLES CLOUDY 63 55 75 SW8 29.94R  
 

 
 
CAZ032-033-061-181800-  
SOUTHERN DESERTS  
 
 
CITY SKY/WX TMP DP RH WIND PRES REMARKS
 
BLYTHE SUNNY 94 42 16 S10 29.81R HX 90  
IMPERIAL SUNNY 92 47 21 SE7 29.78S  
PALM SPRINGS SUNNY 94 40 15 SE5 29.82R HX 90  
THERMAL SUNNY 94 50 22 VRB5 29.77R HX 91  
 

 
 
ELSEWHERE ACROSS THE WESTERN UNITED STATES AND MEXICO  
 
 
CITY SKY/WX TMP DP RH WIND PRES REMARKS
 
DEATH VALLEY, N/A 101 37 11 SE3 N/A HX 95  
DENVER, CO MOSUNNY 68 54 60 VRB5 30.09F  
GRAND CANYON, MOSUNNY 79 35 20 S12 30.26R  
HONOLULU, HI MOSUNNY 81 68 65 NE5 30.00R  
KAHULUI, MAUI MOSUNNY 72 64 78 SE3 30.00R  
LAKE TAHOE, CA SUNNY 69 44 40 NE7 30.11S  
LAS VEGAS, NV MOSUNNY 92 27 9 CALM 29.88R  
MAMMOTH LAKES, FAIR 72 34 25 CALM 30.18S  
MEXICO CITY, M MOSUNNY 70 54 56 NE5 30.32F  
PHOENIX, AZ PTSUNNY 93 48 21 CALM 29.88R  
PORTLAND, OR CLOUDY 65 55 70 N3 29.89S  
RENO, NV SUNNY 77 42 28 CALM 30.00S  
SALT LAKE CITY SUNNY 83 45 26 CALM 30.00R  
SAN DIEGO, CA CLOUDY 69 59 70 SW8 29.95S  
SAN FRANCISCO, MOSUNNY 67 55 65 NE7 29.87R  
SAN JOSE, CA MOSUNNY 68 58 70 SE14 29.88R  
SEATTLE, WA CLOUDY 64 54 69 VRB3 29.90S  
TIJUANA, MEX SUNNY 70 57 64 W5 29.96S  
 

 
 
STATION/POSITION TIME TEMP WIND PRES VSBY WAVE
 
AIR SEA DIR/SP/G HT/PER  
(UTC) (F) (DEG/KT/KT) (MB) (MI) (FT/S)  
WEST SANTA BARBA 1640 N/A 5/15  
EAST SANTA BARBA 1700 61 63 290/ 4/ 4 1014.5  
SANTA MONICA BAY 1700 64 210/ 6/ 8 1014.1  
SAN CLEMENTE BAS 1650 64 67 280/ 2/ 4 1013.9R 4/14  
 
CLICK HERE TO GO TO PREVIOUS BULLETINS.

The Nexlab CA Page Main Text Page